QPF
0.00 0.00 0.00 0.00 0.00 0.00 0.00 0.00 0.00 0.00 0.00 0.00 0.00 0.00 0.00 0.00 0.00 0.00 0.00 0.00 0.00 0.00 0.00 0.00 0.00 0.00 0.00 0.00 0.00 0.00 0.00 0.00 0.00 0.00 0.00 0.00 0.00 0.00 0.00 0.00 0.00 0.00 0.00 0.00 0.00
0.00 0.00 0.00 0.00 0.00 0.00 0.00 0.00 0.00 0.00 0.00 0.00 0.00 0.00 0.00 0.00 0.00 0.00 0.00 0.00 0.00 0.00 0.00 0.00 0.00 0.00 0.00 0.00 0.00 0.00 0.00 0.00 0.00 0.00 0.00 0.00 0.00 0.00 0.00 0.00 0.00 0.00 0.00 0.00 0.00
0.00 0.00 0.00 0.00 0.00 0.00 0.00 0.00 0.00 0.00 0.00 0.00 0.00 0.00 0.00 0.00 0.00 0.00 0.00 0.00 0.00 0.00 0.00 0.00 0.00 0.00 0.00 0.00 0.00 0.00 0.00 0.00 0.00 0.00 0.00 0.00 0.00 0.00 0.00 0.00 0.00 0.00 0.00 0.00 0.00
0.00 0.00 0.00 0.00 0.00 0.00 0.00 0.00 0.00 0.00 0.00 0.00 0.00 0.00 0.00 0.00 0.00 0.00 0.00 0.00 0.00 0.00 0.00 0.00 0.00 0.00 0.00 0.00 0.00 0.00 0.00 0.00 0.00 0.00 0.00 0.00 0.00 0.00 0.00 0.00 0.00 0.00 0.00 0.00 0.00
0.00 0.00 0.00 0.00 0.00 0.00 0.00 0.00 0.00 0.00 0.00 0.00 0.00 0.00 0.00 0.00 0.00 0.00 0.00 0.00 0.00 0.00 0.00 0.00 0.00 0.00 0.00 0.00 0.00 0.00 0.00 0.00 0.00 0.00 0.00 0.00 0.00 0.00 0.00 0.00 0.00 0.00 0.00 0.00 0.00
0.00 0.00 0.00 0.00 0.00 0.00 0.00 0.00 0.00 0.00 0.00 0.00 0.00 0.00 0.00 0.00 0.00 0.00 0.00 0.00 0.00 0.00 0.00 0.00 0.00 0.00 0.00 0.00 0.00 0.00 0.00 0.00 0.00 0.00 0.00 0.00 0.00 0.00 0.00 0.00 0.00 0.00 0.00 0.00 0.00
0.00 0.00 0.00 0.00 0.00 0.00 0.00 0.00 0.00 0.00 0.00 0.00 0.00 0.00 0.00 0.00 0.00 0.00 0.00 0.00 0.00 0.00 0.00 0.00 0.00 0.00 0.00 0.00 0.00 0.00 0.00 0.00 0.00 0.00 0.00 0.00 0.00 0.00 0.00 0.00 0.00 0.00 0.00 0.00 0.00
0.00 0.00 0.00 0.00 0.00 0.00 0.00 0.00 0.00 0.00 0.00 0.00 0.00 0.00 0.00 0.00 0.00 0.00 0.00 0.00 0.00 0.00 0.00 0.00 0.00 0.00 0.00 0.00 0.00 0.00 0.00 0.00 0.00 0.00 0.00 0.00 0.00 0.00 0.00 0.00 0.00 0.00 0.00 0.00 0.00
0.00 0.00 0.00 0.00 0.00 0.00 0.00 0.00 0.00 0.00 0.00 0.00 0.00 0.00 0.00 0.00 0.00 0.00 0.00 0.00 0.00 0.00 0.00 0.00 0.00 0.00 0.00 0.00 0.00 0.00 0.00 0.00 0.00 0.00 0.00 0.00 0.00 0.00 0.00 0.00 0.00 0.00 0.00 0.00 0.00
0.00 0.00 0.00 0.00 0.00 0.00 0.00 0.00 0.00 0.00 0.00 0.00 0.00 0.00 0.00 0.00 0.00 0.00 0.00 0.00 0.00 0.00 0.00 0.00 0.00 0.00 0.00 0.00 0.00 0.00 0.00 0.00 0.00 0.00 0.00 0.00 0.00 0.00 0.00 0.00 0.00 0.00 0.00 0.00 0.00
0.00 0.00 0.00 0.00 0.00 0.00 0.00 0.00 0.00 0.00 0.00 0.00 0.00 0.00 0.00 0.00 0.00 0.00 0.00 0.00 0.00 0.00 0.00 0.00 0.00 0.00 0.00 0.00 0.00 0.00 0.00 0.00 0.00 0.00 0.00 0.00 0.00 0.00 0.00 0.00 0.00 0.00 0.00 0.00 0.00
0.00 0.00 0.00 0.00 0.00 0.00 0.00 0.00 0.00 0.00 0.00 0.00 0.00 0.00 0.00 0.00 0.00 0.00 0.00 0.00 0.00 0.00 0.00 0.00 0.00 0.00 0.00 0.00 0.00 0.00 0.00 0.00 0.00 0.00 0.00 0.00 0.00 0.00 0.00 0.00 0.00 0.00 0.00 0.00 0.00
0.00 0.00 0.00 0.00 0.00 0.00 0.00 0.00 0.00 0.00 0.00 0.00 0.00 0.00 0.00 0.00 0.00 0.00 0.00 0.00 0.00 0.00 0.00 0.00 0.00 0.00 0.00 0.00 0.00 0.00 0.00 0.00 0.00 0.00 0.00 0.00 0.00 0.00 0.00 0.00 0.00 0.00 0.00 0.00 0.00
0.00 0.00 0.00 0.00 0.00 0.00 0.00 0.00 0.00 0.00 0.00 0.00 0.00 0.00 0.00 0.00 0.00 0.00 0.00 0.00 0.00 0.00 0.00 0.00 0.00 0.00 0.00 0.00 0.00 0.00 0.00 0.00 0.00 0.00 0.00 0.00 0.00 0.00 0.00 0.00 0.00 0.00 0.00 0.00 0.00
0.00 0.00 0.00 0.00 0.00 0.00 0.00 0.00 0.00 0.00 0.00 0.00 0.00 0.00 0.00 0.00 0.00 0.00 0.00 0.00 0.00 0.00 0.00 0.00 0.00 0.00 0.00 0.00 0.00 0.00 0.00 0.00 0.00 0.00 0.00 0.00 0.00 0.00 0.00 0.00 0.00 0.00 0.00 0.00 0.00
0.00 0.00 0.00 0.00 0.00 0.00 0.00 0.00 0.00 0.00 0.00 0.00 0.00 0.00 0.00 0.00 0.00 0.00 0.00 0.00 0.00 0.00 0.00 0.00 0.00 0.00 0.00 0.00 0.00 0.00 0.00 0.00 0.00 0.00 0.00 0.00 0.00 0.00 0.00 0.00 0.00 0.00 0.00 0.00 0.00
0.00 0.00 0.01 0.00 0.00 0.00 0.00 0.01 0.02 0.00 0.00 0.00 0.00 0.00 0.00 0.00 0.00 0.00 0.00 0.00 0.00 0.00 0.00 0.00 0.00 0.00 0.00 0.00 0.00 0.00 0.00 0.00 0.00 0.00 0.00 0.00 0.00 0.00 0.00 0.00 0.00 0.00 0.00 0.00 0.00
0.00 0.00 0.00 0.00 0.00 0.00 0.00 0.04 0.02 0.00 0.00 0.00 0.00 0.00 0.00 0.00 0.00 0.00 0.00 0.00 0.00 0.00 0.00 0.00 0.00 0.00 0.00 0.00 0.00 0.00 0.00 0.00 0.00 0.00 0.00 0.00 0.00 0.00 0.00 0.00 0.00 0.00 0.00 0.00 0.00
0.00 0.00 0.01 0.00 0.00 0.00 0.01 0.02 0.00 0.00 0.00 0.00 0.00 0.00 0.00 0.00 0.00 0.00 0.00 0.00 0.00 0.00 0.00 0.00 0.00 0.00 0.00 0.00 0.00 0.00 0.00 0.00 0.00 0.00 0.00 0.00 0.00 0.00 0.00 0.00 0.00 0.00 0.00 0.00 0.00
0.01 0.01 0.00 0.00 0.01 0.04 0.01 0.00 0.00 0.00 0.00 0.00 0.00 0.00 0.00 0.00 0.00 0.00 0.00 0.00 0.00 0.00 0.00 0.00 0.00 0.00 0.00 0.00 0.00 0.00 0.00 0.00 0.00 0.00 0.00 0.00 0.00 0.00 0.00 0.00 0.00 0.00 0.00 0.00 0.00
0.02 0.02 0.00 0.00 0.07 0.05 0.01 0.00 0.00 0.00 0.00 0.00 0.00 0.00 0.00 0.00 0.00 0.00 0.00 0.00 0.00 0.00 0.00 0.00 0.00 0.00 0.00 0.00 0.00 0.00 0.00 0.00 0.00 0.00 0.00 0.00 0.00 0.00 0.00 0.00 0.00 0.00 0.00 0.00 0.00
0.02 0.00 0.00 0.02 0.03 0.01 0.00 0.00 0.00 0.00 0.00 0.00 0.00 0.00 0.00 0.00 0.00 0.00 0.00 0.00 0.00 0.00 0.00 0.00 0.00 0.00 0.00 0.00 0.00 0.00 0.00 0.00 0.00 0.00 0.00 0.00 0.00 0.00 0.00 0.00 0.00 0.00 0.00 0.00 0.00
0.01 0.01 0.01 0.04 0.02 0.00 0.00 0.01 0.00 0.00 0.00 0.00 0.00 0.00 0.00 0.00 0.00 0.00 0.00 0.00 0.00 0.00 0.00 0.00 0.00 0.00 0.00 0.00 0.00 0.00 0.00 0.00 0.00 0.00 0.00 0.00 0.00 0.00 0.00 0.00 0.00 0.00 0.00 0.00 0.00
0.01 0.01 0.04 0.03 0.03 0.02 0.03 0.02 0.01 0.00 0.00 0.00 0.00 0.00 0.00 0.00 0.00 0.00 0.00 0.00 0.00 0.00 0.00 0.00 0.00 0.00 0.00 0.00 0.00 0.00 0.00 0.00 0.00 0.00 0.00 0.00 0.00 0.00 0.00 0.00 0.00 0.00 0.00 0.00 0.00
0.03 0.03 0.05 0.03 0.02 0.02 0.02 0.01 0.00 0.00 0.00 0.00 0.00 0.00 0.00 0.00 0.00 0.00 0.00 0.00 0.00 0.00 0.00 0.00 0.00 0.00 0.00 0.00 0.00 0.00 0.00 0.00 0.00 0.00 0.00 0.00 0.00 0.00 0.00 0.00 0.00 0.00 0.00 0.00 0.00
0.03 0.05 0.03 0.01 0.01 0.02 0.02 0.01 0.01 0.00 0.00 0.00 0.00 0.00 0.00 0.00 0.00 0.00 0.00 0.00 0.00 0.00 0.00 0.00 0.00 0.00 0.00 0.00 0.00 0.00 0.00 0.00 0.00 0.00 0.00 0.00 0.00 0.00 0.00 0.00 0.00 0.00 0.00 0.00 0.00
0.04 0.05 0.04 0.00 0.01 0.03 0.04 0.04 0.02 0.02 0.00 0.00 0.00 0.00 0.00 0.00 0.00 0.00 0.00 0.00 0.00 0.00 0.00 0.00 0.00 0.00 0.00 0.00 0.00 0.00 0.00 0.00 0.00 0.00 0.00 0.00 0.00 0.00 0.00 0.00 0.00 0.00 0.00 0.00 0.00
MSLP
1019.33 1019.12 1019.00 1018.94 1018.21 1017.88 1017.43 1017.10 1016.58 1016.37 1016.00 1015.66 1015.85 1015.43 1014.60 1014.54 1013.78 1013.10 1011.61 1009.12 1008.82 1009.22 1009.27 1008.94 1009.46 1009.27 1009.18 1009.15 1008.93 1009.03 1009.46 1008.47 1007.58 1006.74 1005.21 1004.33 1003.77 1002.93 1002.53 1002.69 1002.84 1003.13 1003.69 1004.46 1005.67
1019.10 1018.87 1018.61 1018.09 1017.89 1017.74 1017.18 1016.82 1016.33 1016.43 1016.19 1015.89 1015.90 1015.14 1014.66 1014.58 1013.86 1011.30 1008.26 1007.62 1007.50 1008.46 1009.03 1008.67 1008.60 1008.97 1008.91 1008.31 1008.34 1008.35 1008.30 1007.21 1006.56 1005.77 1004.94 1004.05 1003.59 1003.14 1002.83 1002.75 1002.88 1003.41 1004.12 1004.93 1005.55
1018.38 1018.05 1017.64 1017.35 1017.07 1016.78 1016.63 1016.55 1016.55 1016.53 1016.16 1015.82 1015.65 1014.91 1014.64 1014.38 1012.94 1008.21 1006.77 1006.90 1007.04 1007.71 1008.00 1007.97 1008.16 1008.43 1008.52 1008.06 1007.57 1007.10 1006.78 1006.07 1005.45 1004.84 1004.23 1003.69 1003.29 1002.95 1002.91 1002.90 1002.86 1003.43 1004.28 1004.77 1005.35
1018.14 1017.76 1017.51 1017.20 1016.85 1016.57 1016.46 1016.30 1016.30 1016.07 1015.92 1015.82 1015.48 1014.84 1014.23 1013.83 1011.16 1007.00 1006.41 1006.37 1006.51 1007.25 1007.71 1007.73 1007.86 1008.17 1007.77 1007.46 1006.76 1006.49 1005.57 1005.13 1004.49 1003.86 1003.56 1003.29 1002.86 1002.96 1002.83 1002.45 1002.32 1002.97 1003.79 1004.46 1005.36
1018.61 1018.17 1017.77 1017.46 1017.29 1017.19 1016.86 1016.65 1016.34 1015.99 1015.88 1015.57 1015.22 1014.61 1013.87 1012.46 1008.97 1006.71 1006.31 1006.47 1006.83 1007.06 1007.24 1007.42 1007.64 1007.30 1007.06 1006.41 1006.43 1005.78 1005.03 1004.37 1003.55 1003.17 1002.91 1002.58 1002.59 1002.56 1002.47 1002.01 1002.22 1002.70 1003.41 1004.19 1004.83
1018.54 1018.22 1017.92 1017.54 1017.16 1016.80 1016.57 1016.16 1015.86 1015.71 1015.51 1015.20 1014.78 1014.60 1013.83 1010.89 1007.22 1006.65 1006.34 1006.41 1006.45 1006.78 1006.61 1006.85 1006.71 1006.42 1006.43 1006.25 1005.90 1005.35 1004.47 1003.72 1003.17 1002.65 1002.34 1002.16 1002.16 1002.11 1001.71 1001.40 1001.91 1002.28 1002.96 1003.52 1004.19
1018.08 1017.76 1017.42 1017.10 1016.58 1016.12 1015.82 1015.29 1015.05 1014.72 1014.42 1014.38 1014.22 1014.18 1012.39 1008.30 1006.45 1005.93 1005.92 1005.81 1006.10 1005.84 1005.93 1005.79 1006.06 1006.68 1005.89 1005.86 1005.34 1005.01 1004.27 1003.50 1002.87 1002.36 1001.93 1001.83 1001.87 1001.57 1001.28 1001.16 1001.58 1002.10 1002.53 1002.84 1003.47
1017.68 1017.27 1016.88 1016.48 1016.08 1015.71 1015.19 1014.68 1014.27 1013.92 1013.59 1013.64 1013.71 1013.53 1010.09 1006.90 1006.14 1005.91 1005.10 1005.52 1005.34 1004.95 1004.98 1004.87 1005.38 1005.84 1006.19 1005.71 1005.30 1005.30 1004.53 1003.33 1002.68 1002.20 1001.41 1001.74 1000.96 1000.89 1000.67 1001.09 1001.51 1001.64 1001.91 1002.46 1002.83
1017.28 1016.86 1016.48 1016.08 1015.63 1015.15 1014.66 1014.10 1013.35 1012.86 1012.58 1012.87 1012.96 1012.19 1008.12 1005.31 1005.34 1003.64 1004.30 1004.58 1004.25 1004.57 1004.21 1004.51 1004.91 1005.27 1005.60 1005.79 1005.63 1005.04 1004.35 1003.47 1002.34 1001.64 1001.22 1000.95 1000.37 1000.12 1000.00 1000.54 1001.11 1001.47 1001.58 1001.90 1002.15
1016.84 1016.56 1016.10 1015.65 1015.23 1014.75 1014.22 1013.33 1011.41 1011.76 1011.30 1011.61 1011.34 1011.13 1007.33 1003.74 1002.91 1002.72 1003.09 1003.68 1003.65 1003.81 1003.85 1004.15 1004.53 1004.89 1005.12 1005.37 1004.47 1004.67 1004.05 1003.25 1002.11 1000.71 1000.76 1000.58 1000.18 999.83 999.84 1000.15 1000.64 1000.98 1001.17 1001.37 1001.76
1016.40 1016.03 1015.71 1015.43 1014.96 1014.59 1014.12 1012.67 1010.65 1010.92 1010.11 1008.02 1006.92 1005.40 1002.56 1002.48 1001.78 1001.47 1001.85 1002.73 1003.32 1003.58 1003.61 1003.61 1003.94 1003.32 1003.67 1003.78 1004.02 1004.03 1003.58 1002.77 1001.37 1000.41 1000.74 1000.35 1000.21 999.83 999.49 999.78 1000.44 1000.60 1000.87 1001.08 1001.79
1016.18 1015.67 1015.29 1014.96 1014.52 1014.43 1014.49 1013.42 1010.99 1010.58 1008.77 1006.32 1005.17 1004.18 1003.25 1002.67 1001.78 1000.59 1000.65 1002.02 1002.48 1002.54 1003.17 1003.83 1001.55 1002.72 1003.00 1003.21 1003.41 1003.13 1002.88 1002.19 1001.15 1000.38 1000.03 1000.22 999.98 999.67 999.15 999.41 999.37 999.72 1000.21 1000.82 1002.14
1015.87 1015.42 1015.05 1014.78 1014.26 1013.67 1013.04 1012.10 1010.12 1010.34 1008.82 1004.24 1003.02 1002.25 1002.45 1002.80 1000.96 1000.19 1000.09 1000.34 1000.72 1001.72 1001.98 1001.55 1000.88 1002.11 1002.39 1002.23 1002.39 1002.09 1001.99 1001.64 1001.42 1000.24 999.62 999.93 999.63 999.29 998.84 998.65 998.80 998.87 999.14 1000.56 1001.72
1015.62 1015.13 1014.76 1014.61 1014.43 1013.01 1011.46 1010.24 1009.36 1009.44 1008.21 1002.01 1000.14 998.51 1000.08 1001.26 999.08 999.05 998.96 999.54 999.70 1000.06 1000.98 1000.67 1001.06 1000.71 1001.00 1000.99 1001.33 1001.06 1000.77 1000.98 1000.84 1000.69 1000.58 999.71 1000.02 999.89 999.34 999.13 998.74 998.63 999.29 1000.39 1001.65
1015.25 1014.88 1014.55 1014.54 1014.22 1013.08 1011.09 1010.17 1008.75 1008.03 1006.51 998.46 996.06 995.17 995.90 997.04 996.34 996.39 997.51 998.29 998.26 998.80 999.72 998.51 999.15 999.43 999.32 999.36 1000.00 999.68 999.86 1000.04 1000.22 1000.63 1000.83 1000.27 1000.69 999.72 999.41 999.25 998.85 998.51 999.04 1000.28 1001.23
1014.74 1014.43 1014.19 1014.02 1013.82 1012.21 1011.29 1010.07 1009.47 1008.59 1003.44 997.05 993.79 994.17 995.64 996.30 995.67 995.13 996.01 997.52 997.90 998.28 998.24 998.11 998.22 998.36 998.28 998.62 998.72 998.75 999.39 999.62 1000.09 1000.62 1000.89 1000.67 1000.70 999.63 999.49 998.80 998.33 998.23 998.98 1000.21 1001.47
1014.25 1013.86 1013.82 1013.35 1012.56 1011.74 1011.49 1010.82 1010.11 1006.75 1001.10 997.03 994.95 994.57 995.20 995.81 996.69 995.92 996.57 997.01 996.50 997.33 996.87 997.48 996.82 997.01 997.01 997.24 997.52 998.02 998.87 999.94 1000.55 1000.75 1000.76 1000.41 1000.45 999.45 998.35 998.00 997.90 998.63 999.50 1000.47 1001.49
1013.71 1013.31 1012.87 1012.54 1012.41 1012.00 1011.95 1011.77 1009.18 1004.78 1003.13 998.25 999.08 997.47 997.12 995.76 995.52 995.62 996.29 996.35 996.43 996.09 996.55 996.51 996.08 995.30 994.92 995.16 995.83 996.73 997.83 998.95 1000.33 1000.88 1000.85 1000.29 999.77 998.30 997.26 997.01 997.56 998.32 999.38 1000.43 1001.59
1013.17 1012.60 1012.03 1011.59 1011.70 1011.91 1012.37 1011.06 1007.51 1005.62 1003.67 1001.64 1001.06 999.46 997.71 997.29 997.37 995.68 995.56 995.00 994.85 995.15 995.44 995.28 994.46 993.68 993.91 994.20 994.95 995.49 996.23 997.39 999.39 1000.21 1000.79 1000.17 998.52 997.33 996.93 997.31 997.84 998.86 999.76 1000.88 1001.76
1012.90 1012.23 1011.10 1010.71 1010.92 1011.86 1012.13 1009.61 1007.50 1006.45 1005.18 1004.46 1003.81 1002.69 1001.34 1000.53 999.27 997.94 995.22 993.85 994.02 994.56 995.24 994.15 994.75 993.44 993.13 993.73 993.60 994.11 995.31 996.95 998.64 1000.43 1000.90 1000.09 998.90 997.99 997.55 997.61 998.10 999.21 1000.10 1001.09 1001.86
1012.64 1012.05 1010.52 1010.03 1010.62 1011.92 1011.23 1009.79 1008.09 1007.24 1006.54 1005.78 1004.96 1004.16 1003.01 1002.39 1001.02 1000.12 996.34 993.48 992.90 993.27 994.29 994.95 994.45 993.12 993.23 992.34 992.75 993.48 994.60 995.93 997.78 999.37 1000.20 1000.26 998.88 996.60 996.56 997.16 997.98 999.02 999.86 1000.74 1001.67
1012.70 1012.15 1010.68 1010.90 1011.48 1011.49 1010.84 1009.70 1008.55 1007.52 1006.72 1006.13 1005.40 1004.68 1004.24 1003.53 1001.78 1000.96 997.48 995.59 992.99 992.65 993.29 993.43 994.01 993.78 992.33 991.69 991.83 992.78 993.82 995.28 997.14 998.76 999.33 999.47 998.40 996.31 996.69 996.97 997.66 998.82 999.70 1000.49 1001.46
1012.90 1012.04 1010.95 1010.93 1011.22 1011.10 1010.54 1009.28 1008.50 1007.61 1006.66 1006.24 1005.38 1004.76 1004.15 1004.30 1003.95 1001.08 998.31 996.48 995.77 994.99 992.70 993.24 993.84 994.00 992.51 991.97 991.44 991.90 992.52 994.11 995.74 997.39 998.39 998.60 997.80 996.38 996.09 996.61 997.22 998.42 999.29 1000.12 1001.09
1013.22 1012.32 1011.27 1010.95 1011.47 1011.16 1010.35 1008.94 1007.95 1006.93 1006.29 1005.87 1005.19 1004.62 1003.92 1003.82 1004.07 1001.76 1000.10 997.59 996.60 995.68 993.90 992.52 992.61 992.76 991.99 990.78 990.65 991.25 992.02 993.28 994.90 996.12 997.05 996.98 996.79 996.57 996.26 996.62 997.42 998.10 998.78 999.79 1000.51
1013.13 1012.23 1011.41 1011.18 1010.66 1010.27 1009.93 1009.08 1008.06 1006.96 1006.07 1005.28 1004.88 1004.36 1003.80 1003.28 1003.30 1003.08 1001.63 999.39 998.08 996.35 995.15 993.48 992.45 992.23 991.96 991.20 990.59 990.29 991.02 992.06 993.06 994.66 995.30 995.74 995.80 995.56 995.61 995.93 996.57 997.17 998.30 999.34 1000.11
1013.24 1012.63 1011.82 1011.48 1010.48 1009.91 1009.43 1008.58 1007.69 1006.58 1005.62 1004.45 1004.13 1003.59 1003.37 1002.74 1003.23 1002.99 1002.93 1002.14 1000.21 997.54 997.52 995.25 992.90 992.21 991.74 990.78 990.49 990.34 989.83 990.72 991.76 993.01 993.81 994.39 994.63 994.71 994.66 994.82 995.64 996.48 997.52 998.49 999.27
1013.02 1012.93 1012.71 1011.54 1010.70 1010.21 1009.24 1008.35 1007.31 1006.48 1005.23 1004.36 1003.58 1002.97 1002.27 1002.43 1002.54 1003.32 1003.26 1002.48 1001.44 1000.43 999.21 997.39 994.37 992.78 991.86 991.16 990.69 990.18 989.50 989.60 990.56 991.63 992.38 993.10 993.53 993.66 994.29 994.38 994.84 995.61 996.47 997.38 998.21
Thickness
5649 5650 5652 5652 5661 5666 5672 5678 5686 5690 5697 5702 5702 5709 5721 5725 5732 5742 5750 5773 5778 5778 5782 5783 5777 5776 5775 5769 5774 5770 5728 5733 5744 5749 5767 5788 5783 5803 5811 5798 5802 5798 5787 5788 5784
5642 5645 5647 5653 5656 5659 5666 5670 5677 5679 5684 5689 5693 5702 5710 5714 5721 5741 5776 5782 5784 5777 5771 5767 5765 5763 5754 5762 5766 5750 5726 5745 5764 5770 5767 5780 5782 5788 5790 5789 5785 5782 5782 5780 5780
5642 5644 5648 5651 5655 5659 5661 5663 5664 5666 5673 5679 5684 5695 5699 5704 5715 5756 5780 5782 5781 5777 5774 5770 5767 5758 5742 5757 5759 5757 5735 5761 5771 5777 5780 5778 5779 5793 5781 5772 5784 5771 5771 5775 5772
5635 5639 5641 5643 5646 5649 5650 5653 5654 5657 5662 5666 5673 5684 5691 5696 5695 5761 5776 5780 5780 5773 5766 5761 5755 5738 5736 5736 5761 5736 5758 5766 5773 5782 5778 5772 5785 5778 5779 5781 5795 5785 5779 5774 5766
5622 5626 5629 5630 5631 5631 5634 5636 5640 5645 5649 5655 5662 5672 5682 5689 5716 5759 5767 5770 5767 5764 5756 5749 5738 5740 5726 5741 5745 5740 5752 5766 5779 5782 5777 5784 5775 5774 5776 5793 5795 5788 5778 5769 5765
5614 5616 5617 5619 5621 5625 5627 5631 5634 5636 5640 5646 5653 5658 5667 5674 5745 5751 5754 5756 5757 5753 5751 5746 5744 5749 5729 5731 5732 5748 5752 5759 5769 5773 5776 5771 5773 5777 5781 5795 5785 5783 5776 5775 5770
5608 5610 5612 5614 5619 5623 5623 5629 5634 5636 5640 5642 5646 5649 5660 5699 5738 5746 5744 5747 5751 5750 5742 5751 5749 5730 5739 5724 5742 5742 5732 5748 5758 5766 5769 5779 5757 5763 5783 5790 5780 5774 5775 5775 5771
5600 5602 5605 5608 5612 5616 5620 5626 5631 5635 5639 5639 5640 5643 5666 5713 5727 5730 5747 5738 5745 5753 5748 5751 5747 5734 5723 5733 5731 5719 5727 5717 5749 5763 5776 5765 5740 5769 5785 5781 5773 5776 5775 5770 5766
5592 5592 5594 5598 5602 5606 5611 5618 5627 5632 5637 5638 5639 5643 5673 5718 5718 5745 5734 5730 5741 5742 5747 5748 5739 5725 5723 5707 5700 5713 5698 5712 5737 5766 5768 5760 5748 5774 5788 5782 5772 5769 5769 5768 5766
5581 5582 5583 5586 5590 5595 5600 5610 5626 5627 5635 5636 5642 5640 5679 5713 5729 5736 5739 5735 5731 5733 5729 5724 5719 5705 5706 5697 5687 5697 5701 5720 5729 5760 5763 5754 5755 5773 5780 5778 5770 5769 5768 5769 5765
5562 5565 5568 5571 5574 5580 5588 5601 5621 5618 5628 5651 5663 5678 5711 5715 5733 5735 5738 5728 5724 5715 5699 5715 5694 5694 5711 5720 5722 5717 5713 5716 5742 5763 5753 5752 5755 5766 5776 5773 5767 5767 5767 5768 5761
5541 5544 5547 5550 5557 5561 5566 5575 5597 5602 5620 5653 5666 5677 5695 5703 5701 5726 5741 5712 5705 5695 5708 5694 5699 5718 5728 5724 5716 5717 5711 5714 5740 5756 5754 5749 5748 5763 5775 5774 5776 5774 5768 5765 5754
5514 5518 5522 5527 5534 5542 5552 5565 5586 5585 5601 5654 5671 5679 5685 5686 5691 5707 5724 5717 5708 5696 5698 5695 5718 5726 5717 5716 5709 5715 5710 5717 5720 5748 5760 5751 5739 5756 5777 5781 5781 5780 5777 5761 5755
5483 5489 5495 5498 5507 5522 5540 5557 5572 5577 5581 5647 5676 5695 5693 5687 5694 5718 5724 5711 5704 5696 5701 5699 5715 5718 5711 5709 5715 5700 5736 5732 5732 5728 5705 5757 5696 5740 5756 5758 5768 5776 5764 5758 5752
5461 5464 5468 5473 5478 5490 5517 5534 5556 5572 5558 5676 5693 5720 5716 5699 5724 5721 5729 5713 5700 5707 5704 5710 5713 5711 5711 5720 5727 5721 5742 5738 5738 5727 5720 5730 5703 5728 5753 5743 5755 5769 5766 5756 5751
5450 5453 5456 5459 5462 5476 5491 5510 5524 5533 5567 5660 5703 5699 5689 5697 5708 5725 5717 5714 5717 5704 5710 5712 5728 5719 5721 5732 5736 5744 5734 5735 5736 5728 5685 5716 5709 5724 5728 5746 5759 5773 5765 5756 5747
5443 5445 5446 5450 5456 5463 5471 5481 5483 5522 5622 5657 5682 5682 5683 5681 5679 5694 5688 5684 5688 5680 5691 5708 5717 5729 5735 5722 5735 5732 5717 5686 5670 5680 5668 5731 5715 5723 5750 5762 5766 5756 5756 5751 5745
5435 5437 5441 5444 5444 5446 5452 5449 5461 5554 5569 5633 5619 5632 5630 5671 5677 5683 5675 5676 5694 5703 5688 5687 5687 5725 5746 5735 5726 5725 5721 5692 5661 5665 5690 5729 5703 5729 5765 5778 5771 5768 5760 5753 5742
5429 5433 5437 5439 5439 5437 5432 5436 5485 5526 5553 5577 5575 5595 5622 5629 5639 5669 5673 5685 5703 5708 5691 5692 5703 5747 5749 5753 5743 5729 5716 5741 5709 5718 5693 5711 5738 5759 5767 5764 5764 5756 5755 5743 5734
5424 5427 5432 5436 5433 5423 5417 5448 5481 5499 5516 5524 5527 5548 5559 5578 5601 5615 5664 5697 5701 5709 5713 5715 5689 5738 5749 5751 5754 5743 5751 5714 5698 5674 5661 5698 5713 5714 5742 5749 5753 5746 5742 5737 5732
5417 5418 5429 5432 5426 5413 5422 5441 5471 5478 5484 5491 5502 5517 5540 5548 5574 5584 5639 5691 5714 5715 5712 5707 5701 5720 5737 5731 5730 5734 5730 5730 5719 5701 5670 5671 5690 5752 5754 5756 5751 5746 5745 5739 5732
5407 5410 5424 5422 5413 5412 5420 5440 5458 5465 5478 5482 5495 5514 5520 5534 5557 5572 5622 5659 5709 5718 5697 5714 5696 5689 5717 5755 5762 5750 5734 5727 5708 5689 5702 5694 5699 5768 5756 5757 5757 5750 5747 5738 5732
5403 5409 5420 5421 5418 5419 5428 5445 5453 5461 5470 5473 5483 5499 5515 5524 5529 5570 5609 5639 5650 5663 5700 5710 5689 5667 5705 5722 5746 5740 5748 5743 5724 5714 5697 5688 5695 5755 5766 5756 5757 5749 5749 5740 5734
5400 5406 5418 5420 5411 5417 5421 5444 5450 5466 5470 5474 5481 5488 5505 5520 5530 5554 5575 5615 5635 5650 5675 5707 5698 5691 5684 5719 5742 5733 5740 5744 5722 5695 5706 5714 5726 5744 5753 5749 5748 5750 5749 5741 5737
5402 5410 5421 5418 5423 5426 5426 5434 5438 5450 5465 5473 5477 5484 5498 5511 5522 5533 5557 5589 5611 5639 5654 5681 5689 5702 5716 5731 5739 5747 5743 5742 5732 5724 5716 5727 5731 5737 5751 5751 5750 5752 5747 5741 5735
5393 5401 5411 5409 5425 5431 5427 5431 5440 5454 5465 5477 5479 5491 5494 5509 5513 5526 5539 5555 5582 5622 5624 5651 5688 5706 5702 5730 5734 5732 5749 5748 5747 5737 5732 5737 5735 5754 5761 5762 5755 5752 5750 5744 5740
5397 5396 5396 5409 5415 5417 5422 5435 5446 5452 5464 5475 5481 5485 5497 5502 5508 5514 5528 5546 5568 5581 5601 5622 5662 5685 5682 5716 5722 5701 5734 5744 5748 5745 5743 5726 5746 5766 5758 5759 5756 5754 5755 5751 5748